Weather in Firostefani

Greece     36°25′30″N   25°25′46″E
temp.,
°C
wind,
m/s
gust,
m/s
humid.,
%
clouds,
%
prec.,
mm/h
press.,
hPa
HPBL,
m
22 june, tue
tue2200:00+25wnw55742 0.0 101263
03:00+24wnw337623 0.0 101228
06:00+24w33795 0.0 101135
09:00+24nw22770 0.0 101313
12:00+25w11720 0.0 101314
15:00+26nw11680 0.0 101373
18:00+26w22685 0.0 101374
21:00+25wnw4471100 0.0 101331
23 june, wed
wed2300:00+25wnw447582 0.0 101432
03:00+24w448072 0.0 101342
06:00+24wnw33794 0.0 101224
09:00+24nw33790 0.0 101331
12:00+25nne22760 0.0 101415
15:00+26nnw22720 0.0 101434
18:00+26nnw45730 0.0 101478
21:00+25nw44730 0.0 101439
24 june, thu
thu2400:00+24nw56780 0.0 101459
03:00+24nw68810 0.0 101479
06:00+24nnw56810 0.0 101461
09:00+24nnw45820 0.0 101459
12:00+25nnw57810 0.0 101475
15:00+25nnw68790 0.0 1014101
18:00+26nw711780 0.0 1013106
21:00+26nnw710730 0.0 101386
25 june, fri
fri2500:00+25nw79770 0.0 101383
03:00+25nnw69770 0.0 101385
06:00+24nw57800 0.0 101274
09:00+25nnw811780 0.0 1012112
12:00+25nnw710770 0.0 1012106
15:00+25nnw710760 0.0 1012109
18:00+26nnw711700 0.0 1011104
21:00+25nnw710760 0.0 101089
26 june, sat
sat2600:00+25n812750 0.0 1011110
03:00+25nw710810 0.0 101096
06:00+25nnw811800 0.0 1010103
09:00+25n57770 0.0 101066
12:00+25nw67810 0.0 101171
15:00+26nw67770 0.0 101064
18:00+26nw57750 0.0 100965
21:00+26wnw67790 0.0 100955